Location: Helsinki
(60.1699°N, 24.9384°E)
Time: 23:52:11
(UTC+02:00)

Altair - Pass Details

Date: 04 November 2020
Orbit: 1502 x 1682 km, 47.2° (Epoch: 25 November)

Event Time Altitude Azimuth Distance (km) Brightness Sun altitude
Rises 07:05:59 0° 258° (WSW) 4,668 9.5 -5.9°
Reaches altitude 10° 07:09:16 10° 250° (WSW) 3,703 9.1 -5.6°
Maximum altitude 07:17:31 37° 188° (S) 2,266 8.6 -4.6°
Drops below altitude 10° 07:26:02 10° 126° (SE) 3,822 11.4 -3.7°
Sets 07:29:28 0° 119° (ESE) 4,833 13.4 -3.3°
